York, PA

8:22 AM EST on December 13, 2019 (GMT -0500)
York

Weather History for KTHV - October, 2019

Change the Weather History Date:

Tuesday, October 1, 2019

  Actual Average Record
Temperature  
Mean Temperature 75 °F -  
Max Temperature 87 °F 0 °F 81 °F (2002)
Min Temperature 64 °F - 34 °F (1997)
Cooling Degree Days 10    
Growing Degree Days 25 (Base 50)    
Moisture  
Dew Point 63 °F    
Average Humidity 69    
Maximum Humidity 81    
Minimum Humidity 51    
Precipitation  
Precipitation 0.00 in - - ()
Sea Level Pressure  
Sea Level Pressure 30.07 in    
Wind  
Wind Speed 4 mph ()    
Max Wind Speed 9 mph    
Max Gust Speed -    
Visibility 10.0 miles    
Events      
Averages and records for this station are not official NWS values.
T = Trace of Precipitation, MM = Missing Value Source: Averaged Metar Reports

Daily Weather History Graph

Daily Weather History Graph

Search for Another Location

Airport or City:

Astronomy

Oct. 01, 2019 Rise Set
Actual Time 7:03 AM EDT 6:50 PM EDT
Civil Twilight 6:36 AM EDT 7:17 PM EDT
Nautical Twilight 6:05 AM EDT 7:48 PM EDT
Astronomical Twilight 5:33 AM EDT 8:20 PM EDT
Moon 10:16 AM EDT (10/1) 9:02 PM EDT (10/1)
Length of Visible Light 12h 40m
Length of Day
11h 46m
Waxing Crescent, 12% of the Moon is Illuminated
Oct 1
Waxing Crescent
Oct 5
First Quarter
Oct 13
Full
Oct 21
Last Quarter
Oct 27
New

Hourly Weather History & Observations

Time (EDT) Temp. Heat Index Dew Point Humidity Pressure Visibility Wind Dir Wind Speed Gust Speed Precip Events Conditions
12:53 AM 66.0 °F - 59.0 °F 78% 30.17 in 10.0 mi ESE 3.5 mph - N/A   Overcast
1:53 AM 66.0 °F - 59.0 °F 78% 30.16 in 10.0 mi East 3.5 mph - N/A   Overcast
2:53 AM 64.9 °F - 59.0 °F 81% 30.16 in 10.0 mi ESE 3.5 mph - N/A   Overcast
3:53 AM 66.0 °F - 59.0 °F 78% 30.16 in 10.0 mi Calm Calm - N/A   Overcast
4:53 AM 66.0 °F - 57.9 °F 75% 30.14 in 10.0 mi Calm Calm - N/A   Overcast
5:53 AM 66.0 °F - 57.9 °F 75% 30.14 in 10.0 mi Calm Calm - N/A   Overcast
6:53 AM 66.0 °F - 57.9 °F 75% 30.14 in 10.0 mi Calm Calm - N/A   Overcast
7:53 AM 66.0 °F - 59.0 °F 78% 30.14 in 10.0 mi Calm Calm - N/A   Overcast
8:53 AM 68.0 °F - 60.1 °F 76% 30.13 in 10.0 mi SSW 9.2 mph - N/A   Overcast
9:07 AM 68.0 °F - 60.1 °F 76% 30.13 in 10.0 mi SSW 9.2 mph - N/A   Overcast
9:53 AM 70.0 °F - 61.0 °F 73% 30.14 in 10.0 mi Variable 4.6 mph - N/A   Overcast
10:02 AM 70.0 °F - 61.0 °F 73% 30.13 in 10.0 mi SW 5.8 mph - N/A   Overcast
10:53 AM 71.1 °F - 62.1 °F 73% 30.12 in 10.0 mi SSW 8.1 mph - N/A   Overcast
11:53 AM 75.0 °F - 64.0 °F 69% 30.10 in 10.0 mi South 4.6 mph - N/A   Overcast
12:11 PM 75.9 °F - 64.0 °F 67% 30.09 in 10.0 mi Variable 3.5 mph - N/A   Scattered Clouds
12:53 PM 77.0 °F - 64.0 °F 64% 30.08 in 10.0 mi Variable 6.9 mph - N/A   Clear
1:53 PM 80.1 °F 81.9 °F 64.9 °F 60% 30.04 in 10.0 mi SSW 8.1 mph - N/A   Clear
2:53 PM 82.9 °F 85.0 °F 66.0 °F 56% 30.02 in 10.0 mi SW 8.1 mph - N/A   Clear
3:53 PM 86.0 °F 88.2 °F 66.0 °F 51% 30.00 in 10.0 mi Variable 6.9 mph - N/A   Clear
4:53 PM 86.0 °F 88.2 °F 66.0 °F 51% 29.98 in 10.0 mi SSW 6.9 mph - N/A   Clear
5:53 PM 84.0 °F 86.3 °F 66.0 °F 55% 29.98 in 10.0 mi SSW 6.9 mph - N/A   Clear
6:53 PM 81.0 °F 83.0 °F 66.0 °F 60% 29.98 in 10.0 mi SSW 4.6 mph - N/A   Clear
7:53 PM 78.1 °F - 66.0 °F 66% 29.98 in 10.0 mi SSW 4.6 mph - N/A   Clear
8:53 PM 77.0 °F - 66.0 °F 69% 29.98 in 10.0 mi SSW 4.6 mph - N/A   Clear
9:53 PM 77.0 °F - 66.9 °F 71% 29.98 in 10.0 mi Variable 3.5 mph - N/A   Clear
10:53 PM 77.0 °F - 66.9 °F 71% 29.96 in 10.0 mi Calm Calm - N/A   Clear
11:53 PM 77.0 °F - 66.9 °F 71% 29.93 in 10.0 mi SSW 8.1 mph - N/A   Clear